CW4525 Weather Reports


time (UTC)temp
C
wind
direction
speed
KPH
gust
KPH
rain 1hr
cm
rain 24hr
cm
rain mn
cm
humidity
%
barometer
mb
20260507143032 11 267 12.9 30.6 0.00 0.18 0.03 64 1003.8
20260507141526 12 279 12.9 32.2 0.00 0.18 0.03 65 1003.7
20260507140027 11 304 11.3 20.9 0.00 0.18 0.03 67 1003.5
20260507134525 10 254 9.7 22.5 0.00 0.18 0.03 70 1003.7
20260507133022 10 310 8.0 24.1 0.00 0.18 0.03 71 1003.8
20260507131523 10 294 9.7 29.0 0.00 0.18 0.03 70 1003.8
20260507130016 10 271 11.3 22.5 0.00 0.18 0.03 71 1003.9
20260507124515 10 329 8.0 19.3 0.00 0.18 0.03 74 1003.9
20260507123018 9 295 14.5 25.7 0.00 0.18 0.03 74 1003.8
20260507121510 8 261 8.0 25.7 0.00 0.18 0.03 77 1003.9
20260507120009 8 332 4.8 24.1 0.00 0.18 0.03 81 1004.0
20260507114508 7 290 3.2 9.7 0.00 0.18 0.03 84 1004.0
20260507113005 7 339 0.0 11.3 0.00 0.18 0.03 85 1003.8
20260507111503 7 280 6.4 12.9 0.00 0.18 0.03 86 1003.8
20260507110003 7 331 3.2 12.9 0.00 0.18 0.03 86 1003.7
20260507104559 7 306 6.4 14.5 0.00 0.18 0.03 86 1003.3
20260507103058 7 296 6.4 16.1 0.00 0.18 0.03 86 1003.2
20260507101606 7 284 6.4 16.1 0.00 0.18 0.03 85 1003.3
20260507100055 7 280 6.4 19.3 0.00 0.18 0.03 85 1002.8
20260507094559 7 309 6.4 19.3 0.00 0.18 0.03 85 1003.3
20260507093051 7 310 8.0 19.3 0.00 0.18 0.03 86 1003.3
20260507091600 7 304 6.4 14.5 0.00 0.18 0.03 85 1003.4
20260507090108 7 278 8.0 19.3 0.00 0.18 0.03 85 1003.6
20260507084545 7 248 6.4 19.3 0.00 0.18 0.03 86 1003.5
20260507083043 7 260 9.7 19.3 0.00 0.18 0.03 87 1003.1
20260507081551 7 267 8.0 17.7 0.00 0.18 0.03 87 1003.2
20260507080039 7 238 4.8 14.5 0.00 0.18 0.03 88 1002.8
20260507074541 8 302 8.0 19.3 0.00 0.18 0.03 89 1003.0
20260507073044 8 262 8.0 14.5 0.00 0.18 0.03 89 1003.0
20260507071534 8 279 6.4 17.7 0.00 0.18 0.03 88 1002.6
20260507070039 8 271 9.7 20.9 0.00 0.18 0.03 88 1002.6
20260507064531 8 296 8.0 17.7 0.00 0.18 0.03 89 1002.7
20260507063030 8 276 9.7 22.5 0.00 0.18 0.03 90 1002.5
20260507061533 8 289 8.0 17.7 0.00 0.18 0.03 90 1002.5
20260507060033 8 322 8.0 16.1 0.00 0.18 0.03 91 1002.7
20260507054524 8 304 9.7 17.7 0.03 0.18 0.03 92 1003.0
20260507053021 8 275 6.4 12.9 0.03 0.18 0.03 91 1002.7
20260507051520 8 231 1.6 9.7 0.03 0.18 0.03 91 1003.0
20260507050030 8 270 3.2 9.7 0.03 0.18 0.03 91 1003.0
20260507044531 9 277 4.8 14.5 0.00 0.15 0.00 92 1002.7
20260507043014 9 263 4.8 17.7 0.00 0.15 0.00 92 1002.4
20260507041513 9 281 8.0 16.1 0.00 0.15 0.00 92 1002.9
20260507040010 10 270 8.0 14.5 0.00 0.15 0.00 92 1002.8
20260507034507 10 266 6.4 16.1 0.00 0.15 0.15 92 1002.6
20260507033008 10 269 8.0 22.5 0.03 0.15 0.15 92 1002.4
20260507031601 11 338 12.9 25.7 0.03 0.15 0.15 92 1002.1
20260507030107 11 265 9.7 20.9 0.03 0.15 0.15 92 1001.9
20260507024556 12 292 11.3 33.8 0.03 0.15 0.15 91 1002.3
20260507023049 12 274 6.4 19.3 0.00 0.13 0.13 92 1002.3
20260507021604 13 262 8.0 24.1 0.00 0.13 0.13 92 1001.7
20260507020051 13 289 12.9 24.1 0.00 0.13 0.13 92 1001.5
20260507014553 14 279 11.3 22.5 0.00 0.13 0.13 93 1001.3
20260507013039 14 248 9.7 20.9 0.00 0.13 0.13 93 1000.8
20260507011539 15 176 11.3 24.1 0.00 0.13 0.13 92 1000.8
20260507010038 15 202 9.7 16.1 0.00 0.13 0.13 92 1000.8
20260507004541 15 184 9.7 20.9 0.00 0.13 0.13 93 1000.7
20260507003036 15 159 11.3 19.3 0.00 0.13 0.13 92 1000.5
20260507001536 14 201 11.3 22.5 0.00 0.13 0.13 93 1000.5
20260507000036 14 119 9.7 19.3 0.00 0.13 0.13 93 1000.4
20260506234534 15 188 9.7 19.3 0.00 0.13 0.13 93 1000.1
20260506233034 15 185 8.0 16.1 0.00 0.13 0.13 93 1000.1
20260506231534 15 181 8.0 20.9 0.00 0.13 0.13 93 1000.2
20260506230033 15 187 8.0 22.5 0.00 0.13 0.13 92 1000.2
20260506224536 14 160 9.7 22.5 0.00 0.13 0.13 92 1000.5
20260506223031 15 161 12.9 19.3 0.00 0.13 0.13 92 1000.5
20260506221532 15 131 9.7 22.5 0.00 0.13 0.13 92 1000.5
20260506220036 15 195 12.9 24.1 0.00 0.13 0.13 92 1000.6
20260506214529 15 163 11.3 24.1 0.00 0.13 0.13 92 1000.6
20260506213028 15 142 9.7 20.9 0.00 0.13 0.13 92 1000.5
20260506211527 15 142 16.1 38.6 0.00 0.13 0.13 92 1000.5
20260506210028 15 179 9.7 30.6 0.03 0.13 0.13 92 1000.6
20260506204528 15 173 14.5 35.4 0.05 0.13 0.13 92 1000.7
20260506203025 15 161 16.1 29.0 0.05 0.13 0.13 91 1000.7
20260506201539 15 157 14.5 29.0 0.05 0.13 0.13 91 1001.1
20260506200027 16 169 11.3 24.1 0.03 0.10 0.10 91 1001.1
20260506194523 16 180 17.7 30.6 0.00 0.08 0.08 90 1001.4
20260506193025 16 155 9.7 30.6 0.03 0.08 0.08 90 1001.6
20260506191522 16 181 12.9 29.0 0.03 0.08 0.08 89 1001.3
20260506190021 16 145 12.9 25.7 0.05 0.08 0.08 88 1001.0
20260506184520 16 168 9.7 19.3 0.08 0.08 0.08 88 1001.5
20260506183019 16 137 8.0 17.7 0.05 0.05 0.05 87 1002.0
20260506181518 16 171 9.7 19.3 0.05 0.05 0.05 85 1002.1
20260506180018 16 170 8.0 16.1 0.03 0.03 0.03 83 1002.3
20260506174516 17 217 9.7 16.1 0.00 0.00 0.00 80 1002.6
20260506173016 17 237 11.3 25.7 0.00 0.00 0.00 74 1002.6
20260506171516 18 211 14.5 38.6 0.00 0.00 0.00 69 1002.5
20260506170016 20 211 12.9 30.6 0.00 0.00 0.00 65 1002.4
20260506164515 20 244 14.5 45.1 0.00 0.00 0.00 64 1002.4
20260506163029 20 202 11.3 45.1 0.00 0.00 0.00 64 1002.5
20260506161513 20 190 20.9 45.1 0.00 0.00 0.00 63 1002.6
20260506160015 20 161 12.9 33.8 0.00 0.00 0.00 63 1002.9
20260506154509 19 129 8.0 24.1 0.00 0.00 0.00 66 1003.2
20260506153008 19 192 9.7 33.8 0.00 0.00 0.00 65 1003.4
20260506151507 19 215 11.3 33.8 0.00 0.00 0.00 66 1003.6
20260506150008 19 199 11.3 24.1 0.00 0.00 0.00 68 1003.8
20260506144509 19 153 9.7 35.4 0.00 0.00 0.00 68 1003.3